Other Public Products
Issued by NWS Charleston, SC

Home | Current Version | Previous Version | Text Only | Print | Product List | Glossary On
Versions: 1 2 3 4 5 6 7 8 9 10 11 12 13 14 15 16 17 18 19 20 21 22 23 24 25 26 27 28 29 30 31 32 33 34 35 36 37 38 39 40 41 42 43 44 45 46 47 48 49 50
916
FPUS82 KCHS 260227
OPUCHS

TEST...KCHS/KSAV Gateway Observations...TEST
National Weather Service Charleston SC
900 PM EST SUN FEB 25 2018

NOTE: "fair" indicates few or no clouds below 12,000 feet with no
significant weather and/or obstructions to visibility.

SCZ050-WAZ558-NCZ071-TXZ119-213-PAZ071-DCZ001-FLZ074-172-MI076-
NYZ176-178-MAZ016-IL014-TNZ027-NJZ106-GAZ044-MD014-260300-

...Gateway Observations for Charleston International...

CITY           SKY/WX    TMP DP  RH WIND       PRES   REMARKS
Chas Airport   CLOUDY    67  65  93 W5        30.14R
Seattle        MOCLDY    38  29  70 SW15      29.81R WCI  29
Charlotte      CLOUDY    66  57  72 VRB3      30.10R
Dallas DFW     CLEAR     57  47  69 SE8       30.00R
Dallas Love    CLEAR     57  48  72 SE9       30.02R
Philladelphia  CLOUDY    46  44  93 CALM      30.03R
Wash National  CLOUDY    52  52 100 SE6       30.01S
Baltimore      MOCLDY    46  46 100 CALM      30.01R FOG
Miami          FAIR      75  69  81 SE10      30.16R
Detroit        FAIR      40  28  62 SW14      30.04R WCI  32
Newark         CLOUDY    43  41  93 NW6       30.02R
Laguardia      CLOUDY    44  40  85 NW3       30.01S
J F K          CLOUDY    44  42  93 N6        30.03R
Boston Logan   CLOUDY    41  41 100 N8        29.99R FOG
Ft. Lauderdale FAIR      76  70  82 SE12      30.15S
Chicago O`Hare FAIR      40  26  57 SW12      30.05R WCI  33
Chicago Midway FAIR      41  26  55 SW9       30.06S
Houston Bush   CLOUDY    60  59  96 NE6       30.00R
Houston Hobby  CLOUDY    61  60  97 NE8       29.98S
Nashville      CLOUDY    52  44  74 E3        30.14R
Atlanta        CLOUDY    62  60  93 SW3       30.17S

$$

GAZ044-118-TXZ119-213-NCZ071-DCZ001-MDZ014-506-PAZ021-071-NJZ106-
NYZ176-178-MAZ106-OHZ011-021-055-MIZ076-KYZ091-ILZ014-INZ047-
MNZ060-ONZ431-260300-

...Gateway Observations for Savannah International...

CITY           SKY/WX    TMP DP  RH WIND       PRES   REMARKS
Savannah Arpt  CLOUDY    67  56  67 NE6       30.15F
Atlanta        CLOUDY    62  60  93 SW3       30.17S
Charlotte      CLOUDY    66  57  72 VRB3      30.10R
Dallas DFW     CLEAR     57  47  69 SE8       30.00R
Houston Bush   CLOUDY    60  59  96 NE6       30.00R
Wash National  CLOUDY    52  52 100 SE6       30.01S
Wash Dulles    CLOUDY    49  49 100 CALM      30.01S FOG
Baltimore      MOCLDY    46  46 100 CALM      30.01R FOG
Philadelphia   CLOUDY    46  44  93 CALM      30.03R
Newark         CLOUDY    43  41  93 NW6       30.02R
Laguardia      CLOUDY    44  40  85 NW3       30.01S
J F K          CLOUDY    44  42  93 N6        30.03R
Boston         CLOUDY    41  41 100 N8        29.99R FOG
Pittsburg      CLOUDY    47  32  56 W5        30.04R
Akron          MOCLDY    43  32  65 W13       30.06R
Cleveland      MOCLDY    40  32  73 W15G23    30.09R WCI  32
Cincinnati     CLOUDY    43  33  68 CALM      30.12S
Columbus       FAIR      42  34  73 W6        30.10S
Detroit        FAIR      40  28  62 SW14      30.04R WCI  32
Chicago O`Hare FAIR      40  26  57 SW12      30.05R WCI  33
Minneapolis    FAIR      26  20  77 SW9       29.92R WCI  17
Indianapolis   FAIR      40  28  62 W3        30.14R
Toronto Canada PTCLDY    39  27  60 SW16G24   29.90R WCI  30

$$




USA.gov is the U.S. government's official web portal to all federal, state and local government web resources and services.